Dushanbe, Tajikistan

4:25 AM +05 on February 18, 2018 (GMT +0500)
Dushanbe

Weather History for UTDD - February, 2018

Change the Weather History Date:

Wednesday, February 14, 2018

  Actual Average Record
Temperature  
Mean Temperature 42 °F -  
Max Temperature 46 °F - - ()
Min Temperature 39 °F - - ()
Degree Days  
Heating Degree Days 22    
Moisture  
Dew Point 41 °F    
Average Humidity 88    
Maximum Humidity 100    
Minimum Humidity 75    
Precipitation  
Precipitation 0.55 in 0.12 in - ()
Sea Level Pressure  
Sea Level Pressure 30.05 in    
Wind  
Wind Speed 4 mph ()    
Max Wind Speed 9 mph    
Max Gust Speed -    
Visibility 3.9 miles    
Events Rain    
T = Trace of Precipitation, MM = Missing Value Source: Averaged Metar Reports

Daily Weather History Graph

Daily Weather History Graph

Search for Another Location

Airport or City:

Trip Planner

Search our weather history database for the weather conditions in past years. The results will help you decide how hot, cold, wet, or windy it might be!

Date:

Astronomy

Feb. 14, 2018 Rise Set
Actual Time 7:17 AM +05 6:01 PM +05
Civil Twilight 6:50 AM +05 6:28 PM +05
Nautical Twilight 6:18 AM +05 6:59 PM +05
Astronomical Twilight 5:48 AM +05 7:30 PM +05
Moon 6:18 AM +05 (2/14) 4:39 PM +05 (2/14)
Length of Visible Light 11h 38m
Length of Day
10h 44m
Waning Crescent, 2% of the Moon is Illuminated
Feb 14
Waning Crescent
Feb 16
New
Feb 23
First Quarter
Mar 2
Full
Mar 9
Last Quarter

Hourly Weather History & Observations

Time (+05) Temp. Windchill Dew Point Humidity Pressure Visibility Wind Dir Wind Speed Gust Speed Precip Events Conditions
12:00 AM 42.8 °F 38.7 °F 39.2 °F 87% 30.18 in 6.2 mi ENE 6.7 mph - N/A   Overcast
12:30 AM 42.8 °F 37.6 °F 39.2 °F 87% 30.18 in 6.2 mi NNE 8.9 mph - N/A   Overcast
1:00 AM 42.8 °F 38.7 °F 37.4 °F 81% 30.18 in 6.2 mi NNE 6.7 mph - N/A   Overcast
1:30 AM 42.8 °F 38.7 °F 37.4 °F 81% 30.18 in 6.2 mi ENE 6.7 mph - N/A   Overcast
2:00 AM 40 °F - 38 °F 92% 30.12 in - Calm Calm - -   Partly Cloudy
2:00 AM 42.8 °F - 37.4 °F 81% 30.18 in 6.2 mi ENE 2.2 mph - N/A   Overcast
2:30 AM 42.8 °F - 37.4 °F 81% 30.18 in 6.2 mi Variable 2.2 mph - N/A   Overcast
3:00 AM 42.8 °F 40.2 °F 37.4 °F 81% 30.15 in 6.2 mi ENE 4.5 mph - N/A   Scattered Clouds
3:30 AM 44.6 °F 42.3 °F 37.4 °F 76% 30.15 in 6.2 mi ENE 4.5 mph - N/A   Scattered Clouds
4:00 AM 42.8 °F 40.2 °F 37.4 °F 81% 30.12 in 6.2 mi Variable 4.5 mph - N/A   Overcast
4:30 AM 44.6 °F 42.3 °F 37.4 °F 76% 30.12 in 6.2 mi East 4.5 mph - N/A   Overcast
5:00 AM 43 °F - 38 °F 75% 30.06 in - Calm Calm - -   Overcast
5:00 AM 44.6 °F - 37.4 °F 76% 30.12 in 6.2 mi Variable 2.2 mph - N/A   Overcast
5:30 AM 42.8 °F 40.2 °F 39.2 °F 87% 30.09 in 6.2 mi NNE 4.5 mph - N/A Rain Light Rain Showers
6:00 AM 42.8 °F 40.2 °F 39.2 °F 87% 30.09 in 6.2 mi North 4.5 mph - N/A Rain Light Rain Showers
6:30 AM 42.8 °F - 39.2 °F 87% 30.09 in 5.0 mi Variable 2.2 mph - N/A Rain Light Rain Showers
7:00 AM 42.8 °F - 39.2 °F 87% 30.09 in 3.1 mi Calm Calm - N/A Rain Light Rain Showers
7:30 AM 42.8 °F - 39.2 °F 87% 30.09 in - ENE 2.2 mph - N/A Rain Light Rain Showers
8:00 AM 44 °F - 40 °F 81% 30.04 in 6 mi Calm Calm - - Rain Light Rain Showers
8:00 AM 42.8 °F 40.2 °F 39.2 °F 87% 30.12 in - ENE 4.5 mph - N/A Rain Light Rain Showers
8:30 AM 42.8 °F 40.2 °F 41.0 °F 93% 30.09 in 2.2 mi ENE 4.5 mph - N/A Rain Light Rain Showers
9:00 AM 42.8 °F 38.7 °F 41.0 °F 93% 30.09 in - ENE 6.7 mph - N/A Rain Light Rain Showers
9:30 AM 42.8 °F 40.2 °F 41.0 °F 93% 30.09 in - ENE 4.5 mph - N/A Rain Light Rain Showers
10:00 AM 44.6 °F - 41.0 °F 87% 30.09 in - Variable 2.2 mph - N/A Rain Light Rain Showers
10:30 AM 44.6 °F - 41.0 °F 87% 30.09 in 2.2 mi Variable 2.2 mph - N/A Rain Light Rain Showers
11:00 AM 45 °F - 42 °F 85% 30.06 in 6 mi Calm Calm - - Rain Light Rain Showers
11:00 AM 44.6 °F - 41.0 °F 87% 30.06 in - Variable 2.2 mph - N/A Rain Light Rain Showers
11:30 AM 44.6 °F 42.3 °F 41.0 °F 87% 30.06 in 1.6 mi South 4.5 mph - N/A Rain Light Rain Showers
12:00 PM 44.6 °F 40.8 °F 41.0 °F 87% 30.06 in - ESE 6.7 mph - N/A Rain Light Rain Showers
12:30 PM 44.6 °F - 42.8 °F 93% 30.06 in 1.6 mi Variable 2.2 mph - N/A Rain Light Rain Showers
1:00 PM 44.6 °F - 42.8 °F 93% 30.06 in 1.1 mi Calm Calm - N/A Rain Light Rain Showers
1:30 PM 44.6 °F - 42.8 °F 93% 30.04 in 0.8 mi Calm Calm - N/A Rain Light Rain Showers
2:00 PM 46 °F - 44 °F 88% 29.95 in 6 mi Calm Calm - - Rain Light Rain Showers
2:00 PM 44.6 °F 40.8 °F 42.8 °F 93% 30.01 in 1.0 mi East 6.7 mph - N/A Rain Light Rain Showers
2:30 PM 44.6 °F 42.3 °F 42.8 °F 93% 30.01 in 0.7 mi SE 4.5 mph - N/A Rain Light Rain Showers
3:00 PM 44.6 °F - 42.8 °F 93% 30.01 in 1.1 mi Variable 2.2 mph - N/A Rain Light Rain Showers
3:30 PM 44.6 °F - 42.8 °F 93% 29.98 in 0.9 mi Variable 2.2 mph - N/A Rain Light Rain Showers
4:00 PM 44.6 °F 40.8 °F 42.8 °F 93% 29.98 in 5.6 mi East 6.7 mph - N/A Rain Light Rain Showers
4:30 PM 46.4 °F 43.0 °F 42.8 °F 87% 29.95 in 4.3 mi ENE 6.7 mph - N/A   Mostly Cloudy
5:00 PM 43 °F - 42 °F 97% 29.98 in 6 mi Calm Calm - - Rain Light Rain Showers
5:00 PM 46.4 °F 42.0 °F 42.8 °F 87% 29.95 in 2.5 mi North 8.9 mph - N/A   Overcast
5:30 PM 46.4 °F 43.0 °F 42.8 °F 87% 29.95 in 0.9 mi North 6.7 mph - N/A Rain Light Rain Showers
6:00 PM 46.4 °F 42.0 °F 42.8 °F 87% 29.95 in 3.1 mi Variable 8.9 mph - N/A Rain Light Rain Showers
6:30 PM 46.4 °F - 41.0 °F 81% 29.98 in 4.3 mi Variable 2.2 mph - N/A Rain Light Rain Showers
7:00 PM 46.4 °F - 41.0 °F 81% 29.98 in 4.3 mi Variable 2.2 mph - N/A Rain Light Rain Showers
7:30 PM 46.4 °F - 41.0 °F 81% 30.01 in 3.7 mi Variable 2.2 mph - N/A Rain Light Rain Showers
8:00 PM 45 °F - 42 °F 86% 29.91 in - Calm Calm - - Rain Light Rain Showers
8:00 PM 44.6 °F - 42.8 °F 93% 30.01 in 3.1 mi North 2.2 mph - N/A Rain Light Rain Showers
8:30 PM 44.6 °F - 42.8 °F 93% 30.01 in - Variable 2.2 mph - N/A   Scattered Clouds
9:00 PM 44.6 °F 42.3 °F 42.8 °F 93% 30.01 in 1.6 mi SSE 4.5 mph - N/A Rain Light Rain Showers
9:30 PM 44.6 °F 42.3 °F 42.8 °F 93% 30.01 in 1.7 mi NE 4.5 mph - N/A Rain Light Rain Showers
10:00 PM 44.6 °F 42.3 °F 42.8 °F 93% 30.01 in - NE 4.5 mph - N/A Rain Light Rain Showers
10:30 PM 44.6 °F 42.3 °F 42.8 °F 93% 30.01 in - Variable 4.5 mph - N/A Rain Light Rain Showers
11:00 PM - - - % 29.90 in - Calm Calm - - Rain Light Rain Showers
11:00 PM 44.6 °F - 42.8 °F 93% 30.04 in 1.7 mi Variable 2.2 mph - N/A Rain Light Rain Showers
11:30 PM 44.6 °F - 44.6 °F 100% 30.01 in 1.2 mi Variable 2.2 mph - N/A Rain Light Rain Showers